Starlink 3133

operational
NORAD ID: 49416 Int'l Des: 2021-104 Owner: SPXS Country: US Constellation: starlink
LEOCIRCULAR

About Starlink 3133

Description loading...

Live Position

Loading 3D Globe...

Upcoming Passes

Altitude History

Altitude vs Time

uPlot chart will show altitude changes over time

Two-Line Element Set

1 49416U 21104J 26034.26341215 .00001315 00000-0 10068-3 0 9999
2 49416 53.2188 23.6670 0001306 92.1039 268.0103 15.08850534233435
Epoch: Feb 3, 2026 • Age: 22 hours

Current Status

Altitude 551.4 km
Velocity 7.59 km/s
Sub-Earth Point -34.91°S, 36.79°E
Launch Date Nov 13, 2021
Age 4.2 years
Type internet

Technical Details

Classification Payload
Mass 290.00 kg
Dry Mass 270.00 kg
Total Mass 290.00 kg
Length 0.20 m
Diameter 2.80 m
Span 9.00 m
Shape Box + pan
Manufacturer SPXS
Bus Type Starlink
Phase Status In Orbit
Owner/State SPXS/US

Large Constellations

Loading constellations...